星链-36877(STARLINK-36877)

导读

STARLINK-36877是美国SpaceX星链互联网星座计划中的一颗卫星,于2026年2月21日在美国发射升空。作为星链星座组网的成员,它承担着为全球尤其是偏远地区提供高速低延迟互联网服务的任务,助力星链实现覆盖全球的卫星互联网布局,进一步推进美国低轨卫星星座建设进程。

基本信息
目录编号:
67896
目录名称:
STARLINK-36877
国际标识:
2026-035T
轨道中心:
EARTH
卫星名称:
星链-36877
卫星全名:
星链-36877(STARLINK-36877)
卫星状态:
在轨 (已飞行195 天)
发射日期:
2026-02-21 UTC
国别 :
美国 (US)
星等 :
--
轨道信息
数据来源 国际轨道数据
星历时间: 2026-09-04T02:48:24+0800
10小时前
查看轨道信息
半长轴: 6843.684km
偏心率: 0.0002349
轨道倾角: 97.282°
近地点辐角 94.813°
升交点赤经 178.907°
平近点角 265.338°
近地点: 463.939km
远地点: 467.155km
周期: 93.906分钟
每日圈数: 15.33444
详细信息
固有亮度:
5
最大亮度:
2.5
卫星平台:
Starlink V1.0
覆盖范围:
全球
运营商:
太空探索技术公司
运营商所在国:
美国
制造商(研发单位):
太空探索技术公司
制造商所在国:
美国
使用方式:
暂无
卫星简介
Starlink 计划是 SpaceX 推出的全球卫星互联网项目,通过发射低轨道卫星,为全球尤其是偏远地区提供高速、低延迟的互联网服务。自 2019 年起,Starlink 已部署数千颗卫星,旨在缩小全球数字鸿沟,推动互联网普及。该项目还为军事、航空等行业提供通信支持,带来广泛经济效益。
2D轨道图
3D轨道图
轨道高度分析图
轨道倾角分析图
轨道综合分析图
查看轨道综合分析图
交会数据列表
事件ID 空间交会对象 最接近时刻(TCA) 交会距离 交会风险概率(CRP) 交会风险指数(CRI) 操作
CDM_260904-121505-085106-789622
2026-09-04T
12:15:56+0000
2.164 km
极远距离
2.027958E-6 低风险 0.41
CDM_260903-100506-167306-789621
2026-09-03T
10:05:50+0000
2.565 km
极远距离
1.669207E-6 低风险 0.39
CDM_260903-052406-106806-789621
2026-09-03T
05:24:23+0000
2.753 km
极远距离
1.493542E-6 低风险 0.38
CDM_260904-130205-085106-789621
2026-09-04T
13:02:53+0000
2.607 km
极远距离
1.412491E-6 低风险 0.38
CDM_260905-013104-941006-789621
2026-09-05T
01:31:26+0000
2.956 km
极远距离
9.568032E-7 极低风险 0.35